Regional Weather Roundup
Issued by NWS

Home | Current Version | Previous Version | Graphics & Text | Print | Product List | Glossary Off
Versions: 1 2 3 4 5 6 7 8 9 10 11 12 13 14 15 16 17 18 19 20 21 22 23 24 25 26 27 28 29 30 31 32 33 34 35 36 37 38 39 40 41 42 43 44 45 46 47 48 49 50

000
ASUS43 KDTX 160710
RWRMI
MICHIGAN HOURLY REGIONAL WEATHER ROUNDUP
NATIONAL WEATHER SERVICE DETROIT/PONTIAC MI
200 AM EST SAT DEC 16 2017

NOTE: "FAIR" INDICATES FEW OR NO CLOUDS BELOW 12,000 FEET WITH NO
SIGNIFICANT WEATHER AND/OR OBSTRUCTION TO VISIBILITY.

MIZ047>049-052>055-059>063-066>070-074>076-081>083-160800-
SOUTHEAST LOWER MICHIGAN

CITY           SKY/WX    TMP DP  RH WIND       PRES   REMARKS
ALMA           LGT SNOW  22  20  93 S3        29.86F
ANN ARBOR      LGT SNOW  28  23  81 S10       29.88S WCI  19
BAD AXE        CLOUDY    20  14  76 W7        29.85S WCI  11
CARO           CLOUDY    21  17  83 SW3       29.86S
DETROIT CITY   LGT SNOW  26  23  88 SW7       29.90S FOG     WCI  18
DETROIT        FLURRIES  31  23  72 SW13      29.91R WCI  21
FLINT          LGT SNOW  23  20  88 CALM      29.88R FOG
GROSSE ILE     FLURRIES  30  23  75 SW10G18   29.91R WCI  21
HILLSDALE      CLOUDY    30  23  74 SW7       29.87S WCI  23
HOWELL         LGT SNOW  24  23  96 CALM      29.85F

CITY           SKY/WX    TMP DP  RH WIND       PRES   REMARKS
JACKSON        LGT SNOW  29  24  82 SW14      29.87S WCI  18
LAMBERTVILLE   FLURRIES  30  22  72 SW8G16    29.92S WCI  23
LANSING        LGT SNOW  24  22  91 MISG      29.86S FOG
LAPEER         LGT SNOW  23  19  85 W3        29.87R
MASON          LGT SNOW  29  25  84 SW5       29.86S WCI  24
MONROE         FLURRIES  29  22  75 SW15G21   29.91R WCI  18
MT. CLEMENS    FLURRIES  25  24  99 CALM      29.88S
PONTIAC        LGT SNOW  23  22  96 CALM      29.85F FOG
PORT HOPE        N/A     22  12  65 SW7       29.84R WCI  13
PORT HURON     CLOUDY    25  16  68 SW3       29.90R
TRI CITIES     CLOUDY    22  17  81 SW7       29.87S WCI  13
MIDLAND        CLOUDY    21  17  83 SW3       29.86S
TROY           LGT SNOW  26  23  89 CALM      29.90S
SAGINAW HB     CLOUDY    23  18  80 SW8       29.87S WCI  14
$$
MIZ043>046-050>051-056>058-064>065-071>073-077>080-160800-
SOUTHWEST LOWER MICHIGAN

CITY           SKY/WX    TMP DP  RH WIND       PRES   REMARKS
BATTLE CREEK   CLOUDY    29  25  85 SW10      29.87R WCI  20
BENTON HARBOR  CLOUDY    38  26  62 SW18      29.87S WCI  28
BIG RAPIDS     LGT SNOW  17  15  91 CALM      29.82S
COLDWATER      CLOUDY    31  23  72 SW8       29.89S WCI  23
HOLLAND        LGT SNOW  34  31  88 W8        29.85S FOG     WCI  27
GRAND RAPIDS   LGT SNOW  25  23  92 E3        29.85S FOG
IONIA          LGT SNOW  24  23  96 SE3       29.85S
KALAMAZOO      CLOUDY    30  24  78 SW12      29.87S WCI  20
LUDINGTON      LGT SNOW  24  19  80 CALM      29.84S
MARSHALL       CLOUDY    28  26  89 SW7       29.87S WCI  21
MOUNT PLEASANT CLOUDY    22  16  77 CALM      29.84S
MUSKEGON       LGT SNOW  27  24  89 E6        29.85S VSB 3/4 WCI  20
SOUTH HAVEN    CLOUDY    39  28  64 W16G24    29.86S WCI  30
$$
MIZ016>042-160800-
NORTHERN LOWER MICHIGAN

CITY           SKY/WX    TMP DP  RH WIND       PRES   REMARKS
ALPENA         CLOUDY    20  15  81 W5        29.82R WCI  13
BEAVER ISLAND  CLOUDY    20  12  71 NW6       29.83R WCI  12
BELLAIRE       CLOUDY    23  18  81 CALM      29.83R
CADILLAC       CLOUDY    15  13  90 CALM      29.79R
CHARLEVOIX     FLURRIES  22  15  72 NW10G18   29.85R WCI  12
FRANKFORT      CLOUDY    24  15  69 CALM      29.84R
GAYLORD        LGT SNOW  18  13  80 VRB6      29.77R WCI  10
GRAYLING       CLOUDY    17  12  82 SW7       29.79S WCI   7
HARBOR SPRINGS CLOUDY    19  12  72 NW7       29.81R WCI  10
HOUGHTON LAKE  CLOUDY    17  13  84 SW3       29.81S
MANISTEE       CLOUDY    23  14  68 NW3       29.84S
OSCODA         PTCLDY    12   7  79 SW9       29.83R WCI   0
PELLSTON       LGT SNOW  18  14  84 N7        29.83R FOG     WCI   9
ROGERS CITY    CLOUDY    19  14  79 W7        29.82R WCI  10
TRAVERSE CITY  CLOUDY    21  13  71 SW6       29.83S WCI  13
$$
MIZ007>008-015-160800-
EASTERN UPPER MICHIGAN

CITY           SKY/WX    TMP DP  RH WIND       PRES   REMARKS
KINROSS        LGT SNOW   9   5  84 NE8       29.83R FOG     WCI  -3
MACKINAC ISLAN MOCLDY    16  10  74 N9        29.82R WCI   5
NEWBERRY       CLOUDY    12  10  92 NE3       29.82S
S. S. MARIE    CLEAR      7  -1  70 N8        29.84R WCI  -6
MUNISING         N/A     14  12  92 S5        29.83S WCI   6
$$
MIZ004>006-011>014-085-160800-
CENTRAL UPPER MICHIGAN

CITY           SKY/WX    TMP DP  RH WIND       PRES   REMARKS
MANISTIQUE     CLEAR      7   2  80 NW7       29.83S WCI  -5
ESCANABA       CLOUDY    12   4  70 NW3       29.85S
MENOMINEE      CLOUDY    13   7  77 CALM      29.87R
SAWYER-GWINN   CLOUDY     1  -2  89 W3        29.79S
$$
MIZ001>003-009>011-084-160800-
WESTERN UPPER MICHIGAN

CITY           SKY/WX    TMP DP  RH WIND       PRES   REMARKS
IRON MOUNTAIN  CLOUDY     8   4  83 CALM      29.79S
HOUGHTON       CLOUDY     9   3  77 CALM      29.80R
COPPER HARBOR    N/A     20  12  71 E12       29.83R WCI   8
IRONWOOD       CLOUDY    10   6  84 E6        29.78S WCI   0
$$

ABBREVIATIONS USED IN REMARKS
   TC - TEMPERATURE IN CELSIUS
  WCI - WIND CHILL INDEX
   HX - HEAT INDEX
  VSB - VISIBILITY





USA.gov is the U.S. government's official web portal to all federal, state and local government web resources and services.